Showing default

IHI-SAT2, 66772

Orbit data source: Space-Track

IHI-SAT2, 66772 is a payload satellite owned by IHI Corp (JP) in SSO that was launched on Fri, 28 Nov 2025 UTC via an FALCON 9 launch vehicle from the Air Force Western Test Range (AFWTR). Payload-class satellites include a variety of spacecraft equipped with specific instruments for various scientific and technological missions. These include communications satellites like Starlink; space stations such as the ISS; scientific satellites like the Hubble; Earth observation satellites from companies like Planet Labs, Umbra, and HawkEye 360; GPS; miniature CubeSats for education and research; and military/defense satellites.

Loading next visibility...
Identifier
66772, 2025-276DL
Orbit
SSO
Country
Flag of JPJP / JPN
Related business
Manufacturer
NanoAvionics
Mission
Operational Commercial Communications
Bus & Motor
CUBESAT 6U, Unknown motor
Mass
12 kg wet, 12 kg dry
Launch date (UTC)
2025-11-28 (2 months ago)
Launch vehicle
FALCON 9
Launch site
Air Force Western Test Range (AFWTR)
Object type
Payload
Rocket body
Debris
Shape & HBR
Box, 0.1 m
Radar Cross Section
0.055 m²

Expand to show TLE details & history
Last TLE update: 14 hours ago

TLE from 14 hours ago
0 IHI-SAT2
1 66772U 25276DL  26034.55905586  .00009136  00000-0  43286-3 0  9993
2 66772  97.4373 110.5510 0001076  15.7005 344.4263 15.19539243 10142
Epoch: 2026-02-03T13:25Z
TLE epoch observation values (Epoch: 2026-02-03T13:25:02.426Z)
Latitude
-0.00001°
Longitude
135.55264°
Altitude
509.607 km
Speed
7.61 km/s
True Right ascension
07h 22m 12s
True Declination
0° 00' 00"
Sunlit
Object was in full shadow at epoch
Visualization orbit readout
Latitude
Unknown
Longitude
Unknown
Altitude
Unknown
Speed
Unknown
Apparent Right ascension
Unknown
Apparent Declination
Unknown
Sunlit
N/A
Visualization observer readout
Local Sidereal Time
05:36:07
Azimuth
Unknown
Elevation
Unknown
Doppler factor
Unknown
Orbital elements
Apogee altitude
504.94 km
Perigee altitude
503.459 km
Semi-major axis
6,882.337 km
Eccentricity
0.00011
Inclination
97.4373°
RAAN
110.551°
Arg. of periapsis
15.7005°
True anomaly
344.42299°
Mean anomaly
344.4263°
Eccentric anomaly
344.42464°
Mean motion
3.80136 °/min
Orbital period
94.7 mins
BSTAR
0.00043286
Loading maneuver chart data...
Computing Atmospheric mass density...
Loading historical data...
Loading historical data...
Loading historical data...
Loading historical data...
Loading historical data...
Loading historical data...
Loading historical data...

Documentation

Showing up to 5 results
|